Regional Weather Roundup
Issued by NWS

Home | Current Version | Previous Version | Graphics & Text | Print | Product List | Glossary On
Versions: 1 2 3 4 5 6 7 8 9 10 11 12 13 14 15 16 17 18 19 20 21 22 23 24 25 26 27 28 29 30 31 32 33 34 35 36 37 38 39 40 41 42 43 44 45 46 47 48 49 50
000
ASUS45 KCYS 220810
RWRWY

WYOMING REGIONAL WEATHER ROUNDUP
NATIONAL WEATHER SERVICE CHEYENNE WY
200 AM MDT TUE AUG 22 2017

NOTE:  "FAIR" INDICATES FEW OR NO CLOUDS BELOW 12,000 FEET
WITH NO SIGNIFICANT WEATHER AND/OR OBSTRUCTIONS TO VISIBILITY.

WYZ001-220900-
YELLOWSTONE NATIONAL PARK

CITY           SKY/WX    TMP DP  RH WIND       PRES   REMARKS
LK YELLOWSTONE   N/A     39  34  82 NW3       30.43S
W YELLOWSTONE  NOT AVBL

$$
WYZ002>013-054>058-071-098>099-220900-
NORTHERN WYOMING

CITY           SKY/WX    TMP DP  RH WIND       PRES   REMARKS
JACKSON        FAIR      43  31  62 NE5       30.34S
CODY           FAIR      59  35  40 SW6       30.26F
GREYBULL       NOT AVBL
WORLAND        FAIR      53  33  46 CALM      30.20S
SHERIDAN       FAIR      49  39  68 CALM      30.20F
BUFFALO        FAIR      61  31  32 SW5       30.27F
GILLETTE       FAIR      53  35  50 S5        30.24F
HULETT         FAIR      57  36  44 S3        30.26S
NEWCASTLE      FAIR      54  32  43 CALM      30.28R

$$
WYZ014>020-022>026-101>103-220900-
CENTRAL WYOMING

CITY           SKY/WX    TMP DP  RH WIND       PRES   REMARKS
BIG PINEY      FAIR      41  24  51 CALM      30.36S
PINEDALE       FAIR      37  28  70 W8        30.37S WCI  31
DUBOIS         FAIR      46  28  49 NW8       30.39R
LANDER           N/A    N/A N/A N/A MISG      30.29S
RIVERTON       FAIR      62  34  35 NE13      30.27S
CASPER         FAIR      50  36  58 NW5       30.27S
DOUGLAS        FAIR      53  41  63 E9        30.28S

$$
WYZ021-027>030-104>119-220900-
SOUTHERN WYOMING

CITY           SKY/WX    TMP DP  RH WIND       PRES   REMARKS
EVANSTON       FAIR      61  36  39 S6        30.36S
KEMMERER         N/A     54  30  40 MISG      30.38S
FORT BRIDGER   SUNNY     61  30  31 W8        30.38S
ROCK SPRINGS   FAIR      61  33  35 NE6       30.33R
RAWLINS        NOT AVBL
SARATOGA       FAIR      54  37  54 SE7       30.33S
LARAMIE        FAIR      54  42  64 S10       30.37S
CHEYENNE       FAIR      57  44  62 SE3       30.35R
TORRINGTON     FAIR      53  44  71 NE6       30.26R
PINE BLUFFS    FAIR      55  45  67 CALM      30.32R

$$



USA.gov is the U.S. government's official web portal to all federal, state and local government web resources and services.